Flag for Germany Weather past 2 weeks in Geislingen an der Steige, Baden-Württemberg, Germany

Now
45 °F

Overcast.


Feels Like: 40 °F
Forecast: 46 / 49 °F
Wind: 8 mph from Southwest

Location: Stoetten

Current Time: Mar 29, 2015 at 9:11:59 AM

Latest Report: Mar 29, 2015 at 8:00 AM


Visibility: 47 mi

Pressure: 29.89 "Hg

Humidity: 88%

Dew point: 41 °F

Location of Geislingen an der SteigeLocation

Historic Weather in Geislingen an der Steige — Graph

°F

Geislingen an der Steige temperature yesterday

Maximum temperature yesterday: 49 °F (at 5:00 PM)
Minimum temperature yesterday: 32 °F (at 6:00 AM)
Average temperature yesterday: 41 °F

Past Weeks' High & Low Weather Summary

 TemperatureHumidityPressure
High59 °F (Mar 25, 2:00 PM)100% (Mar 26, 3:00 AM)30.29 "Hg (Mar 26, 3:00 AM)
Low30 °F (Mar 22, 7:00 AM)31% (Mar 25, 3:00 PM)29.53 "Hg (Mar 25, 3:00 PM)
Average41 °F72%30.08 "Hg
* Reported Mar 14 7:00 AM — Mar 29 8:00 AM, Geislingen an der Steige, Weather by CustomWeather, © 2015

Note: Actual official high and low records may vary slightly from our data, if they occured in-between our weather recording intervals... More about our weather records

Advertising

Geislingen an der Steige weather history for previous 24 hours

 ConditionsComfort  
Time TempWeatherWind HumidityBarometerVisibility
8:00 AM
Sun, Mar 29
45 °FOvercast.8 mph88%29.89 "Hg47 mi
7:00 AM44 °FOvercast.9 mph91%29.91 "Hg37 mi
6:00 AM45 °FOvercast.9 mph85%29.92 "Hg37 mi
5:00 AM44 °FDrizzle. Overcast.8 mph91%29.94 "Hg22 mi
4:00 AM43 °FOvercast.6 mph95%29.98 "Hg12 mi
3:00 AM44 °FOvercast.8 mph92%29.98 "Hg25 mi
1:00 AM43 °FLow clouds.7 mph98%30.02 "Hg9 mi
12:00 AM42 °FLow clouds.7 mph97%30.03 "Hg7 mi
11:00 PM
Sat, Mar 28
41 °FLow clouds.6 mph99%30.04 "Hg4 mi
10:00 PM40 °FLight freezing rain. Low clouds.7 mph98%30.08 "Hg1 mi
9:00 PM43 °FOvercast.7 mph78%30.06 "Hg25 mi
8:00 PM43 °FOvercast.7 mph74%30.07 "Hg22 mi
7:00 PM46 °FOvercast.6 mph57%30.05 "Hg25 mi
6:00 PM48 °FOvercast.8 mph45%30.03 "Hg25 mi
5:00 PM49 °FOvercast.7 mph46%30.03 "Hg22 mi
4:00 PM49 °FScattered clouds.6 mph47%30.05 "Hg25 mi
3:00 PM48 °FPassing clouds.5 mph47%30.07 "Hg34 mi
2:00 PM47 °FPassing clouds.3 mph49%30.10 "Hg34 mi
1:00 PM45 °FPassing clouds.3 mph52%30.14 "Hg31 mi
12:00 PM42 °FPassing clouds.5 mph54%30.19 "Hg37 mi
11:00 AM40 °FPassing clouds.5 mph58%30.22 "Hg37 mi
10:00 AM39 °FOvercast.6 mph60%30.24 "Hg40 mi
9:00 AM37 °FOvercast.3 mph69%30.26 "Hg40 mi
Weather by CustomWeather, © 2015

See weather overviewHow to use our weather pages